Location: Unspecified
(0.0000°N, 0.0000°E)
Time: 16:28:28
(UTC+00:00)

X-37B - Pass Details

Date: 30 September 2023
Orbit: 277 x 277 km, 45.0° (Epoch: 01 November)

Event Time Altitude Azimuth Distance (km) Brightness Sun altitude
Rises 18:49:35 0° 225° (SW) 1,907 4.9 -14.9°
Reaches altitude 10° 18:51:30 10° 227° (SW) 1,093 3.6 -15.4°
Maximum altitude 18:53:56 71° 311° (NW) 293 0.0 -16.0°
Enters shadow 18:54:21 53° 14° (NNE) 344 0.1 -16.1°
